GFSNE_850_spd_216.txt.gz
Wind_Speed
33 35 41 47 44 44 45 48 47 27 27 28 23 20 15 17 13 11 18 18 16 13 12 11 9 9 8 9 7 6 8 7 8 11 11 12 14 16
24 23 30 42 41 42 43 45 46 38 24 33 26 20 22 21 14 11 15 17 14 13 11 10 10 9 8 7 6 6 7 7 8 8 10 11 10 11
28 25 22 26 34 39 38 37 41 32 29 27 26 24 26 21 17 14 15 14 14 13 11 10 9 10 9 8 7 6 6 6 7 7 8 9 9 10
25 27 27 23 32 35 36 43 38 26 26 27 29 30 28 22 19 15 14 15 14 12 11 11 10 9 9 8 8 7 6 6 6 7 6 7 9 8
27 28 27 20 33 28 32 24 27 26 23 24 27 31 28 24 21 15 15 16 14 12 11 11 11 10 10 9 8 6 5 6 5 5 6 6 8 8
19 24 23 34 30 32 34 22 17 26 28 25 24 31 31 28 22 20 21 19 16 14 12 12 11 11 10 8 7 6 5 5 5 4 4 5 5 6
16 16 23 27 32 28 32 19 18 23 29 30 30 36 35 32 30 26 21 22 16 13 12 13 12 10 11 10 8 7 6 5 4 4 4 4 3 4
18 20 23 24 28 32 32 26 21 27 28 32 34 38 34 32 31 29 25 27 23 19 14 14 12 11 11 10 7 7 6 5 4 4 3 3 2 2
18 17 18 19 21 23 18 16 22 25 25 28 34 35 31 32 30 30 28 27 26 12 16 16 15 13 14 10 6 6 4 4 5 5 3 2 1 1
18 15 16 18 19 21 22 22 15 22 24 27 24 22 23 23 27 24 25 24 19 13 10 17 17 15 15 13 7 4 1 4 6 6 4 3 2 1
19 18 18 21 21 26 25 26 29 20 22 21 18 19 16 17 21 26 28 26 23 19 18 18 16 15 15 14 11 7 4 5 8 6 6 4 3 3
27 28 29 26 27 26 26 21 23 23 26 24 24 21 15 13 16 20 23 26 25 23 23 24 17 17 15 18 16 13 10 8 10 9 8 6 5 4
33 32 29 23 20 21 21 20 18 21 22 25 25 24 21 20 20 19 18 23 25 26 20 24 25 20 21 9 17 17 15 13 11 10 9 8 6 6
28 25 23 23 23 22 24 22 20 21 25 26 26 27 24 24 20 20 20 21 21 21 19 22 20 25 24 24 16 13 17 18 15 11 9 9 8 9
24 23 23 24 23 23 24 27 26 24 23 25 25 25 24 25 27 28 25 25 26 25 28 26 24 21 22 25 25 21 16 17 15 13 12 9 9 10
20 21 24 25 25 23 24 26 25 26 27 25 23 23 25 27 31 31 27 28 29 29 29 28 25 23 23 22 23 24 21 14 14 15 12 10 9 9
21 24 28 28 27 26 24 22 22 23 24 25 26 25 29 30 31 31 30 30 31 31 31 29 28 27 24 23 24 24 23 22 18 14 15 14 12 10
22 24 27 27 26 26 25 24 25 25 25 26 28 29 31 34 34 33 32 33 32 32 31 30 30 28 27 27 26 25 24 24 21 19 18 18 16 14
22 22 21 21 22 21 21 21 22 23 22 21 22 24 25 25 27 29 31 31 31 31 31 29 28 29 29 32 23 23 24 23 22 24 23 23 21 14
24 24 22 20 19 18 20 21 21 21 20 20 19 21 22 23 25 25 25 25 26 26 26 27 28 29 30 27 20 15 14 15 17 19 22 21 20 18
28 26 24 22 21 19 18 19 19 21 21 22 23 23 24 24 25 24 23 22 21 20 22 23 22 18 16 17 21 22 18 16 15 15 14 17 19 20
31 30 27 24 22 20 18 19 21 21 21 21 20 22 25 26 26 25 23 22 23 23 22 18 17 18 21 22 23 21 18 16 16 15 16 16 18 22
24 26 26 25 23 20 18 19 22 22 21 21 19 18 20 25 26 26 26 25 24 23 22 21 21 21 23 24 23 23 21 19 17 19 20 19 21 20

GFSNE_850_spd_219.txt.gz
Wind_Speed
26 29 30 35 40 47 47 49 47 28 34 37 36 31 26 21 16 12 14 17 18 16 14 18 18 17 13 12 10 12 12 12 13 12 12 13 14 13
28 26 25 31 41 41 48 46 43 40 35 42 43 36 28 20 16 12 12 18 18 15 16 18 19 17 14 13 11 10 11 12 12 11 11 10 12 13
23 22 24 27 20 42 47 45 46 38 36 33 38 29 28 23 18 13 13 18 18 16 16 17 16 13 13 12 10 9 10 10 11 10 9 9 9 9
22 22 22 18 24 30 40 48 45 42 40 35 36 29 29 23 16 14 16 17 17 16 16 15 14 13 12 11 10 9 8 8 7 7 6 6 7 7
21 22 20 20 11 30 33 34 37 37 32 30 34 33 33 26 22 19 15 16 16 16 15 15 14 13 12 11 10 9 9 8 7 6 6 6 6 6
14 16 15 17 23 19 31 35 36 34 33 28 34 36 33 29 24 22 20 19 19 17 15 15 13 13 11 11 11 9 8 8 7 6 5 4 3 4
12 13 13 18 24 22 28 28 33 31 28 32 36 37 35 33 29 25 21 21 19 16 16 15 14 13 13 12 11 11 10 8 7 6 5 4 2 2
11 9 11 12 14 23 20 24 24 28 34 34 34 33 31 32 31 28 25 26 24 20 18 16 14 13 14 12 12 12 11 8 6 6 5 4 3 1
10 10 13 14 17 22 24 20 23 19 22 31 28 23 24 27 29 28 27 25 25 19 20 19 17 15 15 13 12 11 10 9 7 6 5 4 4 2
12 12 11 13 19 23 25 27 27 20 19 17 14 16 15 19 22 19 24 24 20 17 19 20 19 17 16 15 12 10 9 10 8 6 6 5 4 3
14 13 12 12 11 13 17 19 16 22 21 22 18 20 17 23 23 26 24 25 26 22 19 16 18 18 17 18 14 11 10 11 10 9 8 8 7 4
19 18 17 14 15 12 12 13 17 13 16 24 24 22 21 19 16 17 19 26 28 25 24 21 17 18 15 18 18 16 12 9 10 11 10 9 7 6
24 24 22 21 21 18 19 14 13 17 20 21 21 20 21 19 17 18 19 19 26 26 19 24 20 17 15 7 17 19 16 12 10 12 12 11 10 9
24 24 24 25 22 20 15 15 16 15 18 19 25 23 25 22 20 17 16 16 15 16 15 15 16 16 15 14 13 9 17 17 16 14 13 13 12 11
22 25 24 25 21 19 17 16 15 16 18 21 25 25 25 23 21 19 19 16 16 16 17 18 14 10 10 12 13 13 14 15 18 17 17 15 12 12
17 19 21 23 22 20 20 19 20 20 18 16 20 28 26 27 27 23 23 23 25 25 24 23 20 17 16 15 14 15 16 14 15 18 18 16 15 14
15 17 22 24 23 22 20 18 18 22 22 20 21 23 25 26 30 29 28 28 26 26 25 24 24 22 19 19 20 20 19 20 19 16 19 19 17 14
19 22 25 26 25 24 21 19 19 19 21 25 27 26 25 25 27 29 31 32 28 26 26 26 25 25 25 25 25 24 22 21 20 21 18 20 19 17
20 20 21 23 24 23 22 21 20 20 21 21 23 25 25 25 25 27 29 30 30 27 25 25 25 27 28 30 26 26 24 22 21 23 22 22 21 16
20 18 18 18 19 20 20 20 20 21 23 22 22 22 25 28 30 30 30 30 29 30 29 28 29 29 30 31 27 24 21 20 21 22 22 21 21 20
21 18 17 17 16 16 16 16 17 18 17 18 19 20 21 23 24 24 25 26 26 26 26 27 27 25 23 23 24 25 20 17 16 17 16 17 19 21
22 21 20 19 18 18 17 16 17 19 21 21 21 20 20 21 24 23 23 23 23 21 20 16 15 17 20 23 24 21 19 18 18 18 18 19 19 20
20 22 22 21 20 19 18 18 18 20 21 21 21 21 21 22 22 22 21 20 19 19 19 18 17 17 19 19 20 20 20 19 17 18 20 21 22 20

GFSNE_850_spd_222.txt.gz
Wind_Speed
24 26 27 27 27 26 30 34 36 27 36 37 40 39 35 33 30 27 26 26 23 19 23 25 23 22 21 19 16 16 19 18 16 16 16 16 16 17
26 27 28 30 29 30 34 39 37 38 32 44 50 45 40 33 27 26 24 22 21 21 22 23 25 25 21 18 19 17 16 16 13 13 15 15 15 16
23 26 26 25 23 26 21 38 41 44 35 37 47 42 41 34 27 22 21 22 23 22 20 23 26 25 20 20 18 19 18 16 15 13 15 14 14 14
20 24 27 26 27 29 29 33 43 47 45 43 41 44 40 29 28 26 21 22 23 21 21 21 21 20 18 17 16 14 14 15 16 14 13 14 13 13
18 22 23 24 24 24 25 28 36 37 41 43 45 40 38 33 30 25 21 23 21 20 20 20 19 18 17 15 16 14 13 13 11 11 10 10 9 8
19 17 19 20 20 14 24 29 33 35 37 35 40 42 40 35 30 29 27 22 22 20 20 19 19 17 16 16 16 15 14 13 11 11 10 9 8 8
19 14 13 13 20 7 17 28 31 30 29 29 42 44 43 39 35 31 26 24 23 20 20 20 19 19 19 18 17 16 15 14 13 12 11 10 8 7
18 10 9 10 13 16 9 30 30 30 28 29 40 44 42 39 34 30 28 30 28 22 21 21 18 18 17 17 16 16 16 15 13 12 12 10 8 7
17 9 7 8 11 13 18 20 18 18 20 24 31 38 37 34 30 32 31 29 29 25 24 23 21 19 18 17 17 16 16 15 14 13 12 10 8 7
17 10 7 7 8 13 24 16 15 11 13 22 23 24 30 30 26 27 30 29 24 21 27 27 24 22 21 18 17 16 16 15 15 14 13 10 8 6
17 10 11 8 8 11 20 20 16 16 13 13 23 22 28 31 29 29 30 29 29 27 28 21 27 24 22 20 17 16 14 15 16 15 13 10 8 7
18 15 14 13 12 11 16 21 24 24 21 21 20 22 25 28 24 25 23 30 30 25 28 24 27 25 22 24 21 17 15 15 16 15 14 12 10 9
20 18 20 18 17 15 15 13 12 15 21 23 22 20 18 23 25 28 27 22 25 24 27 28 26 29 16 22 26 22 17 15 14 15 15 14 11 10
20 18 22 24 23 21 15 15 15 14 19 14 24 21 22 23 24 22 24 21 19 20 14 25 22 25 25 15 25 24 22 19 16 14 16 15 14 13
13 16 21 25 24 20 15 14 20 17 21 22 18 21 25 24 23 22 22 21 19 19 15 9 18 15 15 14 13 13 20 22 18 17 17 16 14 13
10 12 19 23 23 18 18 19 19 20 19 19 19 26 26 27 23 25 26 25 23 23 21 19 15 16 13 12 10 11 12 13 16 17 17 17 17 16
13 14 22 26 23 23 24 21 21 20 21 20 17 22 26 28 26 26 27 26 26 25 24 22 20 19 17 13 14 12 12 14 15 12 19 19 18 16
13 15 18 22 25 24 23 21 20 22 23 21 19 18 20 25 25 26 27 28 28 26 23 22 22 23 23 22 20 17 16 15 15 16 18 19 18 17
12 15 17 21 21 20 19 18 18 20 22 23 21 20 21 22 24 26 26 28 28 27 24 24 24 23 24 26 22 22 20 18 16 18 20 21 19 16
12 12 15 17 19 18 17 15 16 16 19 20 21 23 23 22 23 25 27 28 28 28 28 25 24 24 24 25 24 22 18 17 19 21 21 19 19 19
10 10 10 11 14 16 16 16 16 16 16 17 19 20 21 22 23 23 24 24 25 27 28 27 25 24 23 24 24 24 20 20 20 20 17 20 22 23
11 11 11 10 12 13 14 15 16 16 17 16 17 19 20 20 22 25 27 28 29 29 28 26 25 25 26 27 27 25 22 20 18 17 17 18 20 22
10 12 13 12 12 14 15 16 16 17 20 22 22 20 18 19 21 22 22 23 22 21 22 21 21 21 21 22 22 22 20 19 19 20 21 21 21 21

GFSNE_850_spd_228.txt.gz
Wind_Speed
30 30 30 29 28 27 25 27 30 24 30 31 32 30 40 38 42 32 43 34 33 30 26 25 30 27 24 18 22 29 24 20 22 22 21 20 19 17
33 33 31 29 27 24 22 25 28 31 24 29 32 33 38 42 37 37 33 34 29 29 24 26 30 27 23 24 29 31 29 25 24 23 23 21 20 19
33 33 31 27 23 23 27 26 28 32 36 29 30 31 36 46 43 36 35 34 34 27 22 26 28 27 24 26 29 30 29 24 24 24 22 20 20 19
33 29 24 24 25 23 24 28 32 31 31 35 36 32 39 46 49 43 38 40 31 29 25 25 27 26 25 23 31 29 27 25 26 25 25 23 21 22
29 27 28 27 28 27 29 29 31 32 31 33 32 36 39 46 44 40 45 37 36 29 23 25 28 26 25 23 26 28 28 28 29 28 28 26 23 23
23 23 27 27 28 29 28 30 29 30 31 33 33 34 41 46 48 51 41 40 36 31 28 29 27 26 25 24 23 28 27 25 27 27 26 25 23 19
17 22 26 26 29 29 29 27 23 22 27 31 35 42 48 50 53 47 45 41 36 35 34 30 29 27 25 23 26 29 28 27 26 24 22 19 17 16
17 27 24 25 27 27 26 20 18 16 23 31 37 46 50 52 50 50 51 45 35 31 31 29 27 27 27 27 28 30 29 27 24 22 20 19 17 15
22 26 23 24 23 23 20 17 14 14 17 18 35 43 49 51 52 52 48 43 35 33 31 28 23 21 19 23 30 30 28 25 24 23 22 20 18 16
25 22 19 20 20 18 15 14 12 14 20 17 27 37 44 49 51 48 44 37 29 30 25 23 21 19 18 20 28 29 28 26 25 24 22 20 19 17
24 21 18 18 16 15 14 13 11 14 15 13 23 33 43 47 47 42 40 28 26 26 25 23 24 23 19 19 26 27 27 27 26 24 23 22 20 19
19 22 16 19 16 14 12 13 14 12 16 16 23 31 40 41 38 35 38 33 35 27 27 23 29 27 15 16 21 26 26 25 24 24 23 22 21 20
20 21 20 18 16 13 12 14 15 12 14 16 22 31 38 41 38 33 33 33 36 19 36 28 34 28 16 25 21 23 24 26 26 25 24 23 22 18
20 18 18 19 17 14 14 15 17 16 17 20 23 32 40 44 39 34 30 27 23 17 17 33 32 33 21 24 27 26 25 26 27 27 26 25 25 25
17 16 15 17 18 16 16 15 18 20 21 23 26 30 35 36 35 34 31 27 25 18 9 29 27 34 24 22 26 30 29 26 26 25 26 27 28 27
16 13 15 18 21 20 18 18 15 15 23 24 25 27 29 32 34 36 34 29 25 24 16 18 24 25 23 15 17 24 33 29 30 26 26 25 26 27
10 12 16 20 23 22 22 21 18 16 18 24 27 26 28 30 33 35 35 33 26 25 24 20 18 20 17 17 17 18 26 22 24 29 26 25 26 27
10 11 15 20 25 26 26 22 17 19 19 20 23 25 30 31 33 34 34 35 28 24 24 23 22 21 21 18 15 18 19 23 22 24 27 25 25 27
10 12 13 17 23 26 26 22 18 20 23 20 24 23 26 30 32 34 33 32 26 26 25 27 26 26 24 21 23 20 19 20 21 22 22 27 23 24
11 11 13 15 20 23 23 21 20 21 22 23 23 24 25 29 33 34 33 33 30 29 28 29 30 31 28 29 24 28 23 21 22 22 21 21 19 22
11 10 11 13 18 23 23 22 22 23 22 21 22 21 22 27 32 33 33 33 30 30 31 33 32 30 25 25 23 23 27 24 20 20 21 22 22 22
11 11 11 12 14 17 19 20 21 23 25 25 23 21 21 23 26 30 33 35 35 33 30 28 29 31 32 29 24 23 22 24 23 22 23 21 22 17
12 12 12 12 15 19 21 21 22 23 26 27 26 22 21 21 22 23 26 29 34 35 34 31 31 31 31 31 27 26 24 23 24 26 27 26 27 26

GFSNE_850_spd_231.txt.gz
Wind_Speed
30 30 30 30 30 26 29 28 25 23 23 25 28 31 26 26 20 27 38 48 55 45 34 33 31 27 25 23 23 21 18 16 14 20 21 19 19 19
32 31 30 31 31 30 28 26 24 24 26 21 22 29 24 24 27 32 36 45 44 39 33 29 27 32 24 21 22 21 22 19 24 24 22 21 20 19
31 32 31 29 29 29 27 26 21 21 26 30 25 22 27 25 27 31 33 40 41 36 32 24 31 28 24 21 23 27 28 24 25 24 23 22 21 21
31 30 32 29 27 22 25 24 24 27 27 32 31 32 36 29 26 32 33 42 39 32 29 32 33 29 22 21 29 34 30 25 26 25 24 23 23 23
30 30 27 27 26 29 28 28 25 26 28 28 32 32 28 29 32 35 39 39 37 37 31 30 33 28 27 23 27 28 28 27 25 27 27 26 25 25
33 32 29 26 26 23 29 30 29 28 30 30 31 32 29 30 37 43 46 41 41 33 34 34 27 30 27 28 25 25 25 24 23 28 28 25 26 25
30 25 23 22 21 25 27 29 31 30 30 29 28 30 30 34 44 45 48 44 39 41 40 36 35 35 32 24 23 24 27 25 25 28 28 27 26 21
26 23 20 20 22 26 26 28 28 26 23 22 25 31 34 40 48 51 53 48 42 39 39 36 34 33 29 28 24 22 27 25 28 28 27 26 22 19
24 23 23 21 25 22 26 25 23 20 20 18 18 26 34 45 51 49 50 51 43 43 41 35 32 29 26 25 25 24 28 27 26 26 25 23 20 19
20 22 23 23 21 20 21 21 19 17 17 16 17 21 30 43 49 50 49 41 40 41 41 33 30 28 24 24 25 26 29 28 27 26 25 24 21 19
17 20 24 22 19 17 19 17 15 14 11 10 12 15 24 40 44 47 46 42 41 38 34 33 25 27 25 26 27 29 31 30 28 27 27 25 23 20
19 16 17 17 18 17 17 14 13 13 10 9 9 14 20 34 41 43 45 43 40 29 27 31 33 33 15 18 22 29 32 31 29 28 27 26 23 22
21 18 17 17 19 17 15 11 10 10 7 8 10 18 28 35 39 40 40 39 35 26 33 36 37 33 16 26 23 27 29 30 30 29 28 26 24 23
21 20 17 18 20 18 14 11 12 9 9 11 15 26 34 35 35 34 33 27 28 24 32 33 38 32 23 29 27 27 28 29 29 29 29 27 26 25
15 14 16 15 16 17 14 13 13 13 12 16 20 27 31 31 32 32 31 27 28 17 13 30 27 30 20 26 29 31 29 29 30 30 30 29 31 30
13 13 14 14 15 16 15 14 14 15 15 16 21 26 30 34 37 34 29 24 23 18 17 22 23 30 24 23 24 27 31 29 31 30 29 29 31 33
10 10 11 15 17 19 17 15 14 12 16 18 20 27 33 37 38 35 31 27 26 25 24 21 17 26 18 17 18 22 28 26 24 28 27 29 30 33
8 9 10 14 19 21 19 18 18 15 14 16 19 23 29 36 38 36 34 31 27 27 28 26 23 27 20 18 17 19 23 26 24 28 27 26 26 29
8 9 10 12 17 20 20 20 19 15 14 15 19 23 26 30 35 38 38 33 29 28 28 28 28 32 31 25 25 23 20 23 25 25 30 28 26 26
9 10 11 11 14 17 21 22 20 16 15 18 19 22 26 28 33 35 38 39 34 29 28 29 29 32 34 31 26 28 20 21 25 24 27 24 21 19
9 9 10 11 13 14 17 20 19 16 15 17 20 20 23 25 30 32 36 37 36 33 32 31 31 28 24 24 22 26 26 23 20 21 23 23 24 24
9 9 9 10 12 14 17 19 18 17 17 17 18 20 21 22 26 30 35 37 35 34 31 28 27 29 29 28 27 24 30 29 24 21 20 19 22 23
10 11 11 10 11 12 14 16 17 18 19 19 18 18 20 20 21 26 31 34 34 32 32 30 28 28 31 30 27 26 26 30 31 27 23 23 22 20

GFSNE_850_spd_237.txt.gz
Wind_Speed
23 25 25 25 23 27 29 30 29 27 31 27 28 24 23 23 20 19 19 18 20 20 23 29 36 41 32 23 36 30 29 26 21 16 18 23 24 25
29 27 26 26 25 27 28 31 28 26 31 29 27 24 20 21 19 23 22 20 19 20 18 27 42 31 35 35 36 32 32 27 23 21 24 22 23 20
28 26 26 27 28 28 30 28 27 27 30 31 29 19 20 18 22 22 25 25 24 22 21 25 45 41 32 35 41 38 27 24 20 23 16 21 23 22
28 28 30 30 28 26 26 27 26 29 26 26 25 25 20 22 22 24 22 22 21 20 23 23 35 47 39 42 40 37 31 25 27 25 23 19 21 29
29 29 29 28 28 27 21 25 27 29 25 19 19 17 24 26 26 26 23 20 21 17 15 21 36 38 47 45 44 37 31 28 29 28 28 25 29 30
28 28 29 29 25 22 21 24 21 18 18 19 21 25 27 26 25 21 18 22 17 18 16 34 37 39 36 35 35 32 33 33 28 31 28 29 31 30
25 23 20 19 17 18 18 17 18 21 15 19 22 24 26 24 19 17 18 20 25 28 41 36 35 34 28 31 28 35 32 33 31 32 29 26 28 25
22 18 19 17 15 18 17 18 18 17 20 19 23 24 23 15 14 13 21 25 29 35 40 34 34 26 26 29 34 37 37 27 29 31 27 24 26 24
20 20 21 15 14 15 16 18 17 21 18 19 22 22 16 13 11 13 21 28 32 34 34 35 33 32 31 32 29 37 39 32 30 29 26 24 25 24
20 16 16 15 13 14 17 21 20 18 16 19 20 15 16 14 11 11 24 34 34 33 37 37 33 37 35 30 29 28 32 35 32 24 18 22 25 23
19 18 16 16 13 13 16 17 17 15 17 17 12 13 13 14 13 15 28 36 35 35 36 43 35 35 29 32 27 24 25 25 21 18 18 24 24 23
19 18 18 15 12 13 13 13 14 14 15 10 10 12 11 12 11 13 24 37 39 33 33 38 39 37 30 31 30 30 29 24 19 19 24 25 25 24
16 14 15 14 15 15 15 15 15 15 12 8 9 8 8 8 10 16 23 35 38 32 39 41 43 38 27 35 32 31 31 29 25 23 24 23 22 21
13 12 12 13 13 14 15 16 16 14 10 9 7 7 8 10 14 19 27 32 34 33 36 38 44 40 37 40 36 32 30 27 27 28 27 26 23 22
12 12 16 14 10 11 13 16 14 11 11 10 8 8 10 13 16 18 25 28 29 29 34 36 35 39 36 38 40 37 33 30 30 30 30 29 29 29
12 14 15 12 11 11 12 14 13 10 10 10 9 11 14 16 19 19 25 25 25 22 29 30 28 31 33 25 29 38 38 33 36 35 32 29 28 28
12 10 10 8 10 13 16 14 14 12 12 12 12 15 19 23 20 20 21 22 23 24 25 24 20 17 19 22 22 29 39 38 33 38 34 31 31 31
9 7 8 8 8 11 16 16 16 13 12 13 15 18 23 27 27 24 21 23 24 26 26 24 22 21 18 18 15 23 33 35 31 33 34 32 33 33
5 6 7 7 8 10 14 15 16 13 10 13 17 20 24 27 31 30 26 26 24 23 23 27 29 28 27 25 22 17 17 28 28 26 33 32 32 32
6 6 7 7 8 10 12 14 15 14 14 14 16 20 24 26 30 32 32 30 26 24 25 28 32 33 31 28 26 24 20 17 26 28 29 32 29 25
4 7 6 6 8 9 12 13 15 15 15 16 16 18 23 27 30 32 33 32 28 26 28 29 29 30 27 20 18 21 21 18 14 20 24 26 28 28
6 6 5 6 7 8 9 12 15 17 16 16 15 16 20 24 30 33 34 35 33 30 27 28 26 28 31 27 22 18 21 20 17 13 14 15 22 29
7 6 7 7 6 7 10 11 13 16 16 16 16 15 17 21 25 29 33 35 36 33 31 27 29 29 32 30 26 22 21 24 22 20 18 15 12 12